Other Public Products
Issued by NWS Charleston, SC

Current Version | Previous Version | Graphics & Text | Print | Product List | Glossary On
Versions: 1 2 3 4 5 6 7 8 9 10 11 12 13 14 15 16 17 18 19 20 21 22 23 24 25 26 27 28 29 30 31 32 33 34 35 36 37 38 39 40 41 42 43 44 45 46 47 48 49 50
000 FPUS82 KCHS 190812 OPUCHS TEST...KCHS/KSAV Gateway Observations...TEST National Weather Service Charleston SC 300 AM EST FRI JAN 19 2018 NOTE: "fair" indicates few or no clouds below 12,000 feet with no significant weather and/or obstructions to visibility. SCZ050-WAZ558-NCZ071-TXZ119-213-PAZ071-DCZ001-FLZ074-172-MI076- NYZ176-178-MAZ016-IL014-TNZ027-NJZ106-GAZ044-MD014-190900- ...Gateway Observations for Charleston International... CITY SKY/WX TMP DP RH WIND PRES REMARKS Chas Airport FAIR 32 17 54 W3 30.29F Seattle MOCLDY 41 36 82 S9 29.81R Charlotte FAIR 26 20 77 SE3 30.22S Dallas DFW MOCLDY 39 19 44 S10 30.25F WCI 32 Dallas Love CLOUDY 38 19 46 S12 30.28F WCI 30 Philladelphia MOCLDY 24 15 68 SW6 30.08S WCI 17 Wash National FAIR 29 20 69 S6 30.11F WCI 23 Baltimore FAIR 24 13 62 CALM 30.09S Miami CLOUDY 50 45 83 N8 30.25F Detroit FAIR 23 15 71 SW13 29.96S WCI 11 Newark FAIR 23 13 65 W6 30.06R WCI 16 Laguardia FAIR 26 13 57 NW8 30.04S WCI 18 J F K FAIR 25 13 60 W8 30.06S WCI 16 Boston Logan FAIR 23 15 71 W10 29.94S WCI 12 Ft. Lauderdale MOCLDY 48 47 96 N9 30.24F Chicago O`Hare FAIR 30 18 60 SW13 29.93S WCI 20 Chicago Midway FAIR 29 19 66 SW10 29.95S WCI 20 Houston Bush MOCLDY 36 25 64 SE3 30.35F Houston Hobby MOCLDY 37 28 70 NE5 30.35F WCI 33 Nashville FAIR 22 13 68 SE6 30.31F WCI 14 Atlanta FAIR 27 14 58 W5 30.29S WCI 22 $$ GAZ044-118-TXZ119-213-NCZ071-DCZ001-MDZ014-506-PAZ021-071-NJZ106- NYZ176-178-MAZ106-OHZ011-021-055-MIZ076-KYZ091-ILZ014-INZ047- MNZ060-ONZ431-190900- ...Gateway Observations for Savannah International... CITY SKY/WX TMP DP RH WIND PRES REMARKS Savannah Arpt FAIR 27 18 69 CALM 30.33S Atlanta FAIR 27 14 58 W5 30.29S WCI 22 Charlotte FAIR 26 20 77 SE3 30.22S Dallas DFW MOCLDY 39 19 44 S10 30.25F WCI 32 Houston Bush MOCLDY 36 25 64 SE3 30.35F Wash National FAIR 29 20 69 S6 30.11F WCI 23 Wash Dulles FAIR 25 14 63 S5 30.09F WCI 19 Baltimore FAIR 24 13 62 CALM 30.09S Philadelphia MOCLDY 24 15 68 SW6 30.08S WCI 17 Newark FAIR 23 13 65 W6 30.06R WCI 16 Laguardia FAIR 26 13 57 NW8 30.04S WCI 18 J F K FAIR 25 13 60 W8 30.06S WCI 16 Boston FAIR 23 15 71 W10 29.94S WCI 12 Pittsburg FAIR 23 10 57 SW9 30.08S WCI 13 Akron FAIR 20 9 62 SW16 30.06S WCI 6 Cleveland FAIR 28 13 53 S15G24 30.06S WCI 16 Cincinnati FAIR 22 13 68 S10 30.16S WCI 11 Columbus FAIR 19 11 68 SW12 30.16R WCI 7 Detroit FAIR 23 15 71 SW13 29.96S WCI 11 Chicago O`Hare FAIR 30 18 60 SW13 29.93S WCI 20 Minneapolis CLOUDY 31 27 85 CALM 29.71F Indianapolis FAIR 22 13 68 SW12 30.13S WCI 10 Toronto Canada MOCLDY 21 14 73 SW8 29.89R WCI 12 $$

USA.gov is the U.S. government's official web portal to all federal, state and local government web resources and services.